Regional Weather Roundup
Issued by NWS Charleston, SC

Current Version | Previous Version | Graphics & Text | Print | Product List | Glossary On
Versions: 1 2 3 4 5 6 7 8 9 10 11 12 13 14 15 16 17 18 19 20 21 22 23 24 25 26 27 28 29 30 31 32 33 34 35 36 37 38 39 40 41 42 43 44 45 46 47 48 49 50
909 ASUS42 KCHS 252011 RWRCHS REGIONAL WEATHER ROUNDUP NATIONAL WEATHER SERVICE CHARLESTON SC 300 PM EST SAT FEB 25 2017 NOTE: "FAIR" INDICATES FEW OR NO CLOUDS BELOW 12,000 FEET WITH NO SIGNIFICANT WEATHER AND/OR OBSTRUCTIONS TO VISIBILITY. NOT ALL STATIONS ARE QUALITY CONTROLLED. USE DATA WITH CAUTION... ESPECIALLY DEWPOINT OBSERVATIONS. SCZ027-030-031-034>040-042>050-252100- ...SOUTHEAST SOUTH CAROLINA... CITY SKY/WX TMP DP RH WIND PRES REMARKS N CHARLESTON MOSUNNY 81 55 40 W15G23 29.73S WATERFRONT PRK N/A 71 63 75 S13 29.72F MOUNT PLEASANT FAIR 73 63 68 S14G23 29.73S JOHNS ISLAND FAIR 73 63 68 S13G21 29.75S PINOPOLIS N/A N/A N/A N/A W23 29.65F MONCKS CORNER FAIR 79 54 41 W8 29.72S SUMMERVILLE FAIR 77 55 47 SW13G23 29.74S BEAUFORT MCAS SUNNY 79 58 48 W18G25 29.76F BEAUFORT ARPT FAIR 77 59 53 SW20 29.76F HILTON HEAD IS MOSUNNY 79 59 50 W14G24 29.78F WALTERBORO MOCLDY 73 55 53 SW15 29.76S ALLENDALE FAIR 79 57 47 SW9G15 29.74F ...SOUTHERN MIDLANDS AND PEE DEE... CITY SKY/WX TMP DP RH WIND PRES REMARKS GEORGETOWN FAIR 79 52 38 SW13G18 29.71F KINGSTREE MOCLDY 77 54 44 SW15G21 29.70S ORANGEBURG PTSUNNY 77 58 51 W17G24 29.72F BARNWELL FAIR 79 55 44 SW16 29.73F AIKEN FAIR 75 37 25 SW18G28 29.76F MANNING FAIR 73 55 53 MISG 29.71F COLUMBIA MOSUNNY 79 46 31 SW23G33 29.69F SUMTER MOSUNNY 75 56 51 W15G21 29.67F FLORENCE MOSUNNY 77 58 51 SW15G22 29.67F MYRTLE BEACH PTSUNNY 72 61 68 S14 29.69F N MYRTLE BEACH MOSUNNY 67 61 81 SW22G30 29.69F $$ GAZ063-065-086>088-099>101-113>116-118-119-134>141-150-252100- ...SOUTHEAST GEORGIA... CITY SKY/WX TMP DP RH WIND PRES REMARKS SAVANNAH ARPT PTSUNNY 77 57 50 W15G21 29.78F HUNTER AAF MOSUNNY 78 64 62 W12G18 29.76F FORT STEWART MOSUNNY 77 59 54 W6 29.77F STATESBORO SUNNY 79 59 50 W10G25 29.77F SYLVANIA MOCLDY N/A N/A N/A NW15G22 29.77F CLAXTON FAIR 78 62 59 SW13G21 29.79S ...CSRA...CENTRAL AND FAR SOUTHEAST GEORGIA... CITY SKY/WX TMP DP RH WIND PRES REMARKS THOMSON SUNNY 75 32 20 NW12G22 29.82R AUGUSTA-BUSH SUNNY 79 40 24 W16G25 29.73S AUGUSTA-DANIEL SUNNY 76 27 16 SW14G23 29.76S SWAINSBORO FAIR 77 36 22 W12G22 29.79F VIDALIA SUNNY 79 52 38 W14G24 29.80F EASTMAN FAIR N/A N/A N/A W9 29.85F HAZLEHURST FAIR 80 49 34 W5G18 29.81S ALMA CLOUDY 75 59 57 W13G22 29.82S WAYCROSS PTSUNNY 79 63 58 W12 29.82S JESUP MOCLDY 77 57 50 W7 29.81F BAXLEY FAIR 77 63 61 NW13 29.81F BRUNSWICK PTSUNNY 79 63 57 W14G21 29.82F SAINT SIMONS MOSUNNY 78 58 49 SW13 29.82F $$ SCZ027-028-034-036>038-045-046-048>050-GAZ119-141-252100- ...LAKE AND SUPPLEMENTAL COASTAL OBSERVATIONS... STATION/POSITION TIME TEMP WIND PRES WAVE SWELL AIR SEA DIR/SP/G HT/PER HT/PER/DIR (UTC) (F) (DEG/KT/KT) (MB) (FT/S) (FT/S/D) WINYAH BAY 1845 75 190/ 12 1006.0 LAKE MURRAY 1920 73 240/ 16/ 21 1005.1 ACE BASIN NERRS NOT AVBL FORT PULASKI 1948 63 280/ 12/ 18 1008.8S SAPELO ISLAND 1900 75 270/ 15 1010.0 $$ ANZ835-935-AMZ111-154-330-350-352-354-370-450-454-472-252100- ...C-MAN AND BUOY OBSERVATIONS... STATION/POSITION TIME TEMP WIND PRES WAVE SWELL AIR SEA DIR/SP/G HT/PER HT/PER/DIR (UTC) (F) (DEG/KT/KT) (MB) (FT/S) (FT/S/D) BUOY 41004 1850 69 71 220/ 17/ 19 1007.6 6/10 5/120/10 BUOY 41008 1850 65 63 190/ 14/ 16 1009.1 3/11 3/ 70/11 FOLLY BEACH CMAN 1900 66 220/ 14/ 17 1008.3F CAPERS NEARSHORE 1908 62 62 220/ 16/ 19 1007.0F FRIPP NEARSHORE 1908 65 63 220/ 12/ 16 1008.3F STATION/POSITION TIME TEMP WIND PRES WAVE SWELL AIR SEA DIR/SP/G HT/PER HT/PER/DIR (UTC) (F) (DEG/KT/KT) (MB) (FT/S) (FT/S/D) 5E ST. MARYS GA 1930 67 N/A 3/11 2/ 90/11 FRYING PAN BUOY 1950 72 72 210/ 19/ 23 1006.1F 7/10 5/120/10 BUOY 41025 1950 72 76 220/ 17/ 21 1005.0F 6/10 7/130/10 CAPE LOOKOUT NC 1900 70 210/ 12/ 19 1005.6F BUOY 41002 1850 71 71 260/ 8/ 12 1009.5 8/10 8/100/10 BUOY 41010 NOT AVBL ST AUGUSTINE FL 2000 79 68 270/ 10/ 13 1011.1F $$

USA.gov is the U.S. government's official web portal to all federal, state and local government web resources and services.